Location: Zapote
(9.9191°N, 84.0597°W)
Time: 10:48:06
(UTC-06:00)

Courier 1B Rocket - Pass Details

Date: 11 March 2021
Orbit: 920 x 1202 km, 28.2° (Epoch: 12 April)

Event Time Altitude Azimuth Distance (km) Brightness Sun altitude
Rises 20:50:50 0° 261° (W) 4,075 8.9 -46.0°
Reaches altitude 10° 20:55:31 10° 237° (WSW) 3,126 8.0 -47.2°
Enters shadow 20:57:36 13° 221° (SW) 2,907 7.7 -47.7°
